User: anonymous   Login
Location: Theodore Roosevelt National Park
(46.9990°N, 103.4631°W)
Time: 15:19:33
(UTC-06:00)
Language:

Cosmos 2219 Rocket - Orbit

View from above orbital plane
View from above orbital plane
View from above satellite
View from above satellite

Ground track
Ground track

The orbit data is extracted from the following two-line orbital elements,

1 22220U 92076B   18147.19909861 -.00000273  00000-0 -11308-3 0  9996
2 22220  71.0014  55.1103 0010706 112.7360  39.6393 14.16430954319487
Epoch (UTC): 27 May 2018 04:46:42
Eccentricity: 0.0010706
inclination: 71.0014°
perigee height: 830 km
apogee height: 845 km
right ascension of ascending node: 55.1103°
argument of perigee: 112.7360°
revolutions per day: 14.16430954
mean anomaly at epoch: 39.6393°
orbit number at epoch: 31948

The dashed part of the orbit path shows where the satellite is in the earth's shadow,  

DLR